CW3224 Weather Reports


Display with metric or nautical units.
time (UTC)temp
F
wind
direction
speed
MPH
gust
MPH
rain 1hr
in
rain 24hr
in
rain mn
in
humidity
%
barometer
mb
20210615042849 63 156 0.0 0.0 0.00 0.38 0.00 92 1009.5
20210615041847 64 156 0.0 0.0 0.00 0.38 0.00 92 1009.5
20210615040844 64 156 0.0 0.0 0.00 0.38 0.00 92 1009.7
20210615035842 64 156 0.0 0.0 0.00 0.38 0.38 92 1009.7
20210615034841 64 156 0.0 3.0 0.00 0.38 0.38 92 1009.9
20210615033841 64 156 0.0 2.0 0.00 0.38 0.38 92 1009.6
20210615032841 64 156 0.0 0.0 0.00 0.38 0.38 92 1009.6
20210615031840 63 156 0.0 0.0 0.00 0.38 0.38 92 1009.7
20210615030835 63 156 0.0 0.0 0.00 0.38 0.38 91 1009.8
20210615025835 63 156 0.0 0.0 0.00 0.38 0.38 91 1009.8
20210615024835 63 156 0.0 0.0 0.00 0.38 0.38 91 1009.8
20210615023829 63 156 0.0 0.0 0.00 0.38 0.38 91 1010.0
20210615022829 63 156 0.0 1.0 0.00 0.38 0.38 91 1010.1
20210615021827 63 156 0.0 3.0 0.00 0.38 0.38 91 1010.1
20210615020828 63 156 0.0 2.0 0.00 0.38 0.38 91 1010.2
20210615015824 63 156 0.0 2.0 0.00 0.38 0.38 91 1010.3
20210615014818 63 156 0.0 3.0 0.00 0.38 0.38 91 1010.3
20210615013820 63 156 0.0 0.0 0.00 0.38 0.38 91 1010.2
20210615012819 63 156 0.0 0.0 0.00 0.38 0.38 91 1010.0
20210615011819 63 156 0.0 3.0 0.00 0.38 0.38 91 1010.0
20210615010820 63 156 0.0 2.0 0.00 0.38 0.38 91 1010.0
20210615005820 63 156 1.0 4.0 0.00 0.38 0.38 90 1009.9
20210615004817 63 185 1.0 4.0 0.00 0.38 0.38 90 1009.9
20210615003814 64 155 1.0 3.0 0.00 0.38 0.38 90 1010.0
20210615002814 64 141 0.0 4.0 0.00 0.38 0.38 90 1010.4
20210615001816 64 301 0.0 2.0 0.00 0.38 0.38 89 1010.4
20210615000809 64 198 1.0 5.0 0.00 0.38 0.38 89 1010.5
20210614235811 64 301 0.0 3.0 0.00 0.38 0.38 89 1010.5
20210614235807 64 152 0.0 3.0 0.00 0.38 0.38 89 1010.5
20210614233807 64 187 1.0 4.0 0.00 0.38 0.38 89 1010.4
20210614232807 64 164 1.0 6.0 0.00 0.38 0.38 89 1010.3
20210614231808 64 185 1.0 4.0 0.00 0.38 0.38 88 1010.3
20210614230804 64 202 2.0 7.0 0.00 0.38 0.38 88 1010.1
20210614225803 64 301 1.0 6.0 0.00 0.38 0.38 88 1010.3
20210614224801 64 148 2.0 6.0 0.00 0.38 0.38 88 1010.3
20210614223800 64 119 0.0 6.0 0.00 0.38 0.38 88 1010.3
20210614222756 64 172 2.0 5.0 0.00 0.38 0.38 88 1010.4
20210614221755 64 158 1.0 7.0 0.00 0.38 0.38 88 1010.4
20210614220754 64 301 2.0 5.0 0.00 0.38 0.38 88 1010.5
20210614215756 64 158 0.0 0.0 0.00 0.38 0.38 88 1010.6
20210614214750 64 158 0.0 0.0 0.00 0.38 0.38 88 1010.6
20210614213751 64 212 0.0 0.0 0.00 0.38 0.38 88 1010.7
20210614212750 64 210 0.0 0.0 0.00 0.38 0.38 87 1011.0
20210614211747 64 211 0.0 0.0 0.00 0.38 0.38 87 1011.0
20210614210747 64 211 0.0 0.0 0.00 0.38 0.38 87 1011.0
20210614205747 64 212 1.0 3.0 0.00 0.38 0.38 86 1011.1
20210614204747 64 225 1.0 7.0 0.00 0.38 0.38 86 1011.1
20210614203746 64 184 2.0 6.0 0.00 0.38 0.38 86 1011.1
20210614202748 64 301 2.0 9.0 0.00 0.38 0.38 86 1011.2
20210614201745 64 186 2.0 7.0 0.00 0.38 0.38 86 1011.2
20210614200744 64 301 3.0 7.0 0.00 0.38 0.38 86 1011.5
20210614195743 64 301 2.0 8.0 0.00 0.38 0.38 85 1011.4
20210614194740 64 301 3.0 8.0 0.00 0.38 0.38 85 1011.4
20210614193742 65 202 3.0 10.0 0.00 0.38 0.38 85 1011.5
20210614192740 65 200 4.0 11.0 0.00 0.38 0.38 85 1011.6
20210614191741 65 301 3.0 9.0 0.00 0.38 0.38 85 1011.6
20210614190740 65 146 4.0 11.0 0.00 0.38 0.38 84 1011.8
20210614185740 65 301 3.0 7.0 0.00 0.38 0.38 84 1012.0
20210614184737 65 193 4.0 12.0 0.00 0.38 0.38 83 1012.0
20210614183735 65 227 4.0 10.0 0.00 0.38 0.38 83 1012.1
20210614182729 65 125 4.0 13.0 0.00 0.38 0.38 83 1012.1
20210614181729 65 301 4.0 12.0 0.00 0.38 0.38 84 1012.1
20210614180729 65 157 3.0 11.0 0.00 0.38 0.38 84 1012.2
20210614175728 65 301 3.0 7.0 0.00 0.38 0.38 85 1012.2
20210614174729 65 160 4.0 12.0 0.00 0.38 0.38 83 1012.2
20210614173725 66 198 4.0 11.0 0.00 0.38 0.38 83 1012.2
20210614172724 66 228 4.0 12.0 0.00 0.38 0.38 86 1012.5
20210614171724 66 186 4.0 11.0 0.01 0.38 0.38 87 1012.5
20210614170720 65 301 5.0 13.0 0.01 0.38 0.38 87 1012.6
20210614165721 65 233 5.0 12.0 0.01 0.38 0.38 89 1012.8
20210614164717 64 191 4.0 10.0 0.01 0.38 0.38 92 1012.8
20210614163714 62 202 4.0 12.0 0.02 0.38 0.38 92 1012.7
20210614162715 61 187 3.0 13.0 0.02 0.38 0.38 91 1012.8
20210614161715 61 200 4.0 10.0 0.01 0.37 0.37 91 1012.8
20210614160714 61 203 3.0 11.0 0.01 0.37 0.37 91 1012.6
20210614155714 61 191 3.0 8.0 0.04 0.37 0.37 92 1013.1
20210614154714 61 224 3.0 12.0 0.08 0.37 0.37 91 1013.1
20210614153715 61 206 3.0 9.0 0.07 0.36 0.36 92 1012.7
20210614152713 61 220 3.0 13.0 0.07 0.36 0.36 92 1013.0
20210614151713 61 225 2.0 6.0 0.08 0.36 0.36 92 1013.0
20210614150712 60 239 2.0 8.0 0.08 0.36 0.36 92 1013.1
20210614145712 60 193 2.0 6.0 0.08 0.33 0.34 91 1014.1
20210614144712 60 156 2.0 6.0 0.09 0.29 0.29 91 1014.1
20210614143706 60 153 0.0 2.0 0.13 0.29 0.29 91 1014.1
20210614142706 60 201 1.0 5.0 0.16 0.29 0.29 91 1013.7
20210614141706 60 98 0.0 0.0 0.19 0.28 0.28 90 1013.7
20210614140703 60 98 0.0 0.0 0.24 0.28 0.28 90 1013.6
20210614135700 60 98 0.0 0.0 0.24 0.25 0.25 89 1012.7
20210614134659 60 99 0.0 0.0 0.20 0.20 0.21 89 1012.7
20210614133700 60 99 0.0 3.0 0.16 0.16 0.16 88 1013.6
20210614132700 60 97 0.0 3.0 0.13 0.13 0.13 88 1014.1
20210614131701 60 137 0.0 4.0 0.09 0.09 0.09 88 1014.1
20210614130657 61 209 0.0 0.0 0.04 0.04 0.04 87 1014.4
20210614125658 62 209 0.0 4.0 0.01 0.01 0.01 85 1014.7
20210614124659 62 301 0.0 4.0 0.00 0.00 0.00 84 1014.7
20210614123658 62 301 1.0 3.0 0.00 0.00 0.00 84 1014.4
20210614122657 62 301 1.0 4.0 0.00 0.00 0.00 84 1013.7
20210614121658 62 210 1.0 4.0 0.00 0.00 0.00 83 1013.7
20210614120657 62 301 1.0 5.0 0.00 0.00 0.00 84 1013.2
20210614115658 62 301 1.0 4.0 0.00 0.00 0.00 85 1013.2
20210614115200 61 145 1.0 4.0 0.00 0.00 0.00 86 1013.2
20210614113651 60 177 0.0 3.0 0.00 0.00 0.00 86 1013.1
20210614112652 59 143 1.0 5.0 0.00 0.00 0.00 86 1012.7
20210614111652 59 155 1.0 3.0 0.00 0.00 0.00 87 1012.7
20210614110653 58 173 1.0 4.0 0.00 0.00 0.00 87 1012.8
20210614105650 58 189 1.0 4.0 0.00 0.00 0.00 88 1012.6
20210614104651 57 135 1.0 4.0 0.00 0.00 0.00 88 1012.6
20210614103646 57 203 0.0 2.0 0.00 0.00 0.00 88 1012.6
20210614102644 56 203 1.0 4.0 0.00 0.00 0.00 88 1012.5
20210614101642 56 160 0.0 5.0 0.00 0.00 0.00 88 1012.5
20210614100642 56 176 1.0 3.0 0.00 0.00 0.00 88 1012.2
20210614095643 56 186 0.0 3.0 0.00 0.00 0.00 88 1012.3
20210614094636 56 187 0.0 2.0 0.00 0.00 0.00 88 1012.3
20210614093634 56 185 0.0 1.0 0.00 0.00 0.00 87 1012.4
20210614092633 56 185 0.0 1.0 0.00 0.00 0.00 87 1012.6
20210614091635 56 185 0.0 2.0 0.00 0.00 0.00 87 1012.6
20210614090634 56 185 0.0 3.0 0.00 0.00 0.00 87 1012.6
20210614085635 56 187 1.0 4.0 0.00 0.00 0.00 87 1012.6
20210614084632 57 155 1.0 5.0 0.00 0.00 0.00 87 1012.6
20210614083632 57 171 2.0 5.0 0.00 0.00 0.00 87 1012.4
20210614082630 57 204 1.0 4.0 0.00 0.00 0.00 86 1012.2
20210614081631 57 181 1.0 4.0 0.00 0.00 0.00 86 1012.2
20210614080629 57 209 1.0 3.0 0.00 0.00 0.00 86 1012.2
20210614075629 58 200 1.0 4.0 0.00 0.00 0.00 86 1012.2
20210614074630 58 194 0.0 5.0 0.00 0.00 0.00 85 1012.2
20210614073620 58 184 0.0 0.0 0.00 0.00 0.00 85 1012.2
20210614072621 58 184 0.0 0.0 0.00 0.00 0.00 84 1012.3
20210614071619 59 190 0.0 0.0 0.00 0.00 0.00 83 1012.3
20210614070617 59 189 0.0 0.0 0.00 0.00 0.00 83 1012.1
20210614065617 59 189 0.0 0.0 0.00 0.00 0.00 82 1012.1
20210614064617 60 189 0.0 0.0 0.00 0.00 0.00 81 1012.1
20210614063618 60 189 1.0 3.0 0.00 0.00 0.00 81 1012.1
20210614062617 60 189 1.0 2.0 0.00 0.00 0.00 80 1012.1
20210614061618 61 189 0.0 3.0 0.00 0.00 0.00 79 1012.1
20210614060618 61 191 0.0 2.0 0.00 0.00 0.00 79 1012.1
20210614055622 61 193 0.0 2.0 0.00 0.00 0.00 78 1012.0
20210614054614 62 191 1.0 3.0 0.00 0.00 0.00 77 1012.0
20210614053613 62 165 1.0 3.0 0.00 0.00 0.00 76 1011.7
20210614052614 62 165 2.0 5.0 0.00 0.00 0.00 75 1011.6
20210614051611 62 204 2.0 6.0 0.00 0.00 0.00 74 1011.6
20210614050609 63 301 1.0 5.0 0.00 0.00 0.00 72 1012.1
20210614045611 63 173 1.0 3.0 0.00 0.00 0.00 71 1012.2
20210614044603 64 203 1.0 4.0 0.00 0.00 0.00 69 1012.2
20210614043603 64 301 1.0 3.0 0.00 0.00 0.00 67 1012.2